Terminal Aerodrome Forecast
Issued by NWS

Home | Current Version | Previous Version | Text Only | Print | Product List | Glossary On
Versions: 1 2 3 4 5 6 7 8 9 10 11 12 13 14 15 16 17
210
FTUS43 KAPX 221128
TAFTVC
TAF
KTVC 221128Z 2212/2312 20005KT 6SM BR BKN007 OVC100
     FM221600 20006KT P6SM SCT200
     FM222200 20007KT P6SM BKN100
     FM230300 20007KT P6SM VCSH OVC050
     FM230600 25005KT P6SM BKN025
     FM231000 29006KT P6SM BKN018=

USA.gov is the U.S. government's official web portal to all federal, state and local government web resources and services.